Home   Weather   Daytona Beach   Past weeks

Flag for USA Past Weather in Daytona Beach, Florida, USA — Yesterday and Last 2 Weeks

Now
54 °F

Light fog.


Feels Like: 54 °F
Forecast: 59 / 76 °F
Wind: No wind

Location: Daytona Beach Regional Airport

Current Time: Jan 17, 2017 at 6:11:51 am

Latest Report: Jan 17, 2017 at 4:53 am


Visibility: 7 mi

Pressure: 30.22 "Hg

Humidity: 100%

Dew Point: 54 °F

Location of Daytona BeachLocation

Past Weather in Daytona Beach — Graph

°F

Daytona Beach Temperature Yesterday

Maximum temperature yesterday: 79 °F (at 2:53 pm)
Minimum temperature yesterday: 55 °F (at 7:53 am)
Average temperature yesterday: 64 °F

High & Low Weather Summary for the Past Weeks

 TemperatureHumidityPressure
High83 °F (Jan 3, 2:53 pm)100% (Jan 2, 4:53 am)30.61 "Hg (Jan 2, 4:53 am)
Low35 °F (Jan 8, 5:53 am)42% (Jan 4, 1:53 pm)29.81 "Hg (Jan 4, 3:53 pm)
Average62 °F85%30.22 "Hg
* Reported Jan 2 4:53 am — Jan 17 4:53 am, Daytona Beach, Weather by CustomWeather, © 2017

Note: Actual official high and low records may vary slightly from our data, if they occured in-between our weather recording intervals... More about our weather records

Advertising

Daytona Beach Weather History for the Previous 24 Hours

Scroll right to see more
 ConditionsComfort  
Time TempWeatherWind HumidityBarometerVisibility
4:53 am
Tue, Jan 17
54 °FLight fog.No wind100%30.22 "Hg7 mi
3:53 am54 °FLight fog.No wind100%30.22 "Hg8 mi
2:53 am56 °FLight fog.No wind100%30.23 "Hg7 mi
1:53 am56 °FFog.No wind100%30.23 "Hg5 mi
12:53 am58 °FLight fog.No wind100%30.25 "Hg7 mi
11:53 pm
Mon, Jan 16
60 °FClear.No wind100%30.27 "Hg10 mi
10:53 pm60 °FClear.No wind100%30.25 "Hg10 mi
9:53 pm61 °FClear.No wind100%30.25 "Hg10 mi
8:53 pm63 °FClear.5 mph97%30.27 "Hg10 mi
7:53 pm65 °FPassing clouds.5 mph94%30.26 "Hg10 mi
6:53 pm64 °FPassing clouds.6 mph90%30.25 "Hg10 mi
5:53 pm70 °FPassing clouds.3 mph71%30.25 "Hg10 mi
4:53 pm74 °FPassing clouds.9 mph60%30.24 "Hg10 mi
3:53 pm76 °FPassing clouds.10 mph54%30.24 "Hg10 mi
2:53 pm79 °FScattered clouds.8 mph42%30.24 "Hg9 mi
1:53 pm78 °FScattered clouds.7 mph46%30.24 "Hg10 mi
12:53 pm77 °FScattered clouds.8 mph52%30.25 "Hg10 mi
11:53 am76 °FScattered clouds.12 mph56%30.30 "Hg10 mi
10:53 am76 °FPassing clouds.9 mph58%30.32 "Hg10 mi
9:53 am71 °FScattered clouds.No wind76%30.32 "Hg10 mi
8:53 am65 °FPassing clouds.No wind91%30.28 "Hg10 mi
7:53 am55 °FFog.No wind100%30.27 "Hg10 mi
6:53 am56 °FFog.No wind100%30.26 "Hg8 mi
Weather by CustomWeather, © 2017

See weather overviewHow to use our weather pages